Find Starlink 11552

NORAD ID: 62907 Int'l Des: 2025-027 Owner: SPXS Country: US Constellation: starlink operational
LEOCIRCULAR

現在のビュー

3D地球を読み込み中...

About Starlink 11552

Starlink 11552 (NORAD 62907) is a starlink constellation satellite (v2 mini d2c) launched Feb 8, 2025 by SPXS of US. It operates in LEO, CIRCULAR orbit with a mass of 960.00 kg.

Starlink 11552について

説明を読み込み中...

次回通過

Passes for default location (London). Set your location on the main map for personalized predictions.

高度履歴

Loading altitude history...

軌道要素

1 62907U 25027A 26170.50393164 .00170521 00000-0 13031-2 0 9993
2 62907 42.9986 94.0761 0000462 335.8072 24.2774 15.70880702 79203
Epoch: Jun 19, 2026 • Age: 11 hours

現在のステータス

高度 355.4 km
速度 7.70 km/s
衛星直下点 17.87°N, 8.45°W
打ち上げ日 Feb 8, 2025
運用期間 1.3 years
タイプ internet

技術仕様

分類 Payload
質量 960.00 kg
乾燥質量 910.00 kg
総質量 960.00 kg
長さ 0.30 m
直径 4.10 m
スパン 29.00 m
形状 Box + pan
製造者 SPXS
バスタイプ Starlink V2MD
フェーズステータス In Orbit
所有者/国 SPXS/US

Most Searched